Museu de l'Esquerda





Hora UTC 07:30
Temperatura 2.1 ºC
Humitat 96.0 %
Pressió 1018.7 hPa
Pluja 0.0 mm
Velocitat vent 1.6 km/h
Direcció vent ESE

Dades diàries 2022-12-01



Hora UTC (hivern +1h; estiu +2h)
Temperatura (ºC) Humitat (%) Pressió (hPa) Velocitat vent (km/h) Precipitació (mm)
Hora UTC Aire Humitat Pressió Vel. Dir. Vel. Max Dir. Intent. màx 5 min.
00:05 3.8 92.0 1018.9 1.6 S 1.6 0.0
00:10 3.8 92.0 1018.8 0.0 S 1.6 0.0
00:15 3.7 93.0 1018.8 1.6 S 3.2 0.0
00:20 3.8 93.0 1018.8 0.0 S 3.2 0.0
00:25 3.7 93.0 1018.7 1.6 S 3.2 0.0
00:30 3.6 93.0 1018.8 0.0 S 3.2 0.0
00:35 3.6 93.0 1018.8 0.0 S 0.0 0.0
00:40 3.7 93.0 1018.7 0.0 S 0.0 0.0
00:45 3.7 93.0 1018.7 1.6 S 1.6 0.0
00:50 3.6 93.0 1018.7 0.0 S 1.6 0.0
00:55 3.5 93.0 1018.7 1.6 S 3.2 0.0
01:00 3.4 93.0 1018.6 1.6 S 3.2 0.0
01:05 3.3 94.0 1018.6 1.6 SSE 4.8 0.0
01:10 3.3 94.0 1018.6 1.6 ESE 3.2 0.0
01:15 3.4 93.0 1018.6 1.6 ESE 3.2 0.0
01:20 3.5 93.0 1018.5 0.0 ESE 3.2 0.0
01:25 3.5 93.0 1018.5 3.2 ESE 4.8 0.0
01:30 3.4 93.0 1018.6 1.6 ESE 4.8 0.0
01:35 3.3 93.0 1018.5 0.0 ESE 3.2 0.0
01:40 3.2 93.0 1018.6 0.0 ESE 1.6 0.0
01:45 3.2 93.0 1018.6 0.0 ESE 1.6 0.0
01:50 3.2 93.0 1018.5 0.0 ESE 3.2 0.0
01:55 3.2 93.0 1018.6 1.6 ESE 3.2 0.0
02:00 3.3 94.0 1018.6 0.0 ESE 1.6 0.0
02:05 3.3 94.0 1018.5 0.0 ESE 0.0 0.0
02:10 3.3 93.0 1018.5 0.0 ESE 0.0 0.0
02:15 3.2 94.0 1018.4 0.0 ESE 1.6 0.0
02:20 3.1 93.0 1018.4 1.6 ESE 1.6 0.0
02:25 3.1 94.0 1018.5 1.6 ESE 1.6 0.0
02:30 3.0 94.0 1018.3 0.0 ESE 3.2 0.0
02:35 3.0 94.0 1018.4 0.0 ESE 3.2 0.0
02:40 2.9 94.0 1018.4 0.0 ESE 1.6 0.0
02:45 2.6 94.0 1018.4 0.0 ESE 1.6 0.0
02:50 2.7 94.0 1018.4 0.0 ESE 1.6 0.0
02:55 2.8 95.0 1018.4 0.0 ESE 1.6 0.0
03:00 2.4 94.0 1018.4 0.0 ESE 3.2 0.0
03:05 2.6 95.0 1018.4 1.6 ESE 3.2 0.0
03:10 2.4 94.0 1018.4 1.6 ESE 3.2 0.0
03:15 2.4 95.0 1018.2 1.6 ESE 3.2 0.0
03:20 2.3 94.0 1018.4 1.6 ESE 3.2 0.0
03:25 2.4 95.0 1018.2 0.0 ESE 3.2 0.0
03:30 2.2 95.0 1018.2 3.2 ESE 3.2 0.0
03:35 2.0 95.0 1018.3 1.6 ESE 3.2 0.0
03:40 2.1 95.0 1018.1 3.2 ESE 3.2 0.0
03:45 2.1 95.0 1018.1 3.2 ESE 4.8 0.0
03:50 2.2 95.0 1018.2 3.2 ESE 4.8 0.0
03:55 2.2 95.0 1018.0 1.6 ESE 4.8 0.0
04:00 2.1 95.0 1018.1 1.6 ESE 4.8 0.0
04:05 2.1 95.0 1018.3 0.0 ESE 4.8 0.0
04:10 2.2 96.0 1018.1 1.6 ESE 3.2 0.0
04:15 2.2 96.0 1018.0 0.0 ESE 3.2 0.0
04:20 2.3 96.0 1018.1 1.6 ESE 3.2 0.0
04:25 2.4 96.0 1018.2 0.0 ESE 3.2 0.0
04:30 2.6 96.0 1018.1 0.0 ESE 1.6 0.0
04:35 2.5 95.0 1018.1 1.6 ESE 3.2 0.0
04:40 2.6 95.0 1018.1 0.0 ESE 3.2 0.0
04:45 2.6 95.0 1018.1 1.6 ESE 3.2 0.0
04:50 2.7 95.0 1018.1 0.0 ESE 3.2 0.0
04:55 2.4 94.0 1018.1 0.0 ESE 1.6 0.0
05:00 2.2 95.0 1018.1 0.0 ESE 1.6 0.0
05:05 2.2 95.0 1018.0 0.0 ESE 0.0 0.0
05:10 2.2 95.0 1018.0 0.0 ESE 0.0 0.0
05:15 2.1 95.0 1018.0 0.0 ESE 1.6 0.0
05:20 1.9 95.0 1018.0 1.6 ESE 3.2 0.0
05:25 1.8 95.0 1018.1 0.0 ESE 3.2 0.0
05:30 1.9 96.0 1018.1 3.2 ESE 3.2 0.0
05:35 1.6 95.0 1018.1 1.6 ESE 3.2 0.0
05:40 1.5 95.0 1018.2 1.6 ESE 3.2 0.0
05:45 1.5 95.0 1018.1 3.2 ESE 4.8 0.0
05:50 1.5 96.0 1018.2 1.6 ESE 4.8 0.0
05:55 1.4 96.0 1018.3 3.2 ESE 4.8 0.0
06:00 1.4 96.0 1018.3 0.0 ESE 4.8 0.0
06:05 1.5 96.0 1018.3 3.2 ESE 4.8 0.0
06:10 1.4 96.0 1018.4 1.6 ESE 4.8 0.0
06:15 1.6 96.0 1018.4 1.6 ESE 3.2 0.0
06:20 1.6 96.0 1018.4 0.0 ESE 3.2 0.0
06:25 1.7 96.0 1018.4 0.0 ESE 1.6 0.0
06:30 1.7 96.0 1018.5 1.6 ESE 1.6 0.0
06:35 1.7 96.0 1018.5 3.2 ESE 3.2 0.0
06:40 1.7 96.0 1018.6 1.6 ESE 3.2 0.0
06:45 1.8 96.0 1018.6 0.0 ESE 3.2 0.0
06:50 1.8 96.0 1018.6 0.0 ESE 3.2 0.0
06:55 1.9 96.0 1018.7 1.6 ESE 1.6 0.0
07:00 1.9 96.0 1018.6 0.0 ESE 3.2 0.0
07:05 1.9 96.0 1018.6 1.6 ESE 3.2 0.0
07:10 2.0 96.0 1018.6 0.0 ESE 3.2 0.0
07:15 2.1 96.0 1018.7 1.6 ESE 3.2 0.0
07:20 2.1 96.0 1018.6 0.0 ESE 3.2 0.0
07:25 2.1 96.0 1018.7 1.6 ESE 3.2 0.0
07:30 2.1 96.0 1018.7 1.6 ESE 3.2 0.0
Màxima 4.3 96.0 1018.9 3.2 ESE 4.8 0.0
Mínima 1.3 92.0 1018.0
Total 0.0